This is the latest recevied weather packets stored in our database for station/object W4KAB. If no packets are shown the sender has not sent any weather packets the latest 10 day(s).
| Time | Temp. | Humidity | Pressure | Rain* | Wind** | Luminosity | Snow |
|---|---|---|---|---|---|---|---|
| 1777515043 | 18.33° C | 83% | 1011.7 hPa | 0 mm | - | 0 W/m² | - |
| 1777514739 | 18.89° C | 82% | 1011.7 hPa | 0 mm | - | 0 W/m² | - |
| 1777514437 | 19.44° C | 81% | 1011.8 hPa | 0 mm | - | 0 W/m² | - |
| 1777514133 | 19.44° C | 79% | 1011.6 hPa | 0 mm | - | 0 W/m² | - |
| 1777513830 | 20° C | 79% | 1011.7 hPa | 0 mm | - | 0 W/m² | - |
| 1777513527 | 20° C | 79% | 1011.6 hPa | 0 mm | - | 0 W/m² | - |
| 1777513224 | 20.56° C | 76% | 1011.6 hPa | 0 mm | - | 0 W/m² | - |
| 1777512920 | 20.56° C | 75% | 1011.5 hPa | 0 mm | - | 0 W/m² | - |
| 1777512617 | 20.56° C | 74% | 1011.6 hPa | 0 mm | - | 0 W/m² | - |
| 1777512316 | 20.56° C | 77% | 1011.5 hPa | 0 mm | - | 0 W/m² | - |
| 1777512010 | 21.11° C | 71% | 1011.4 hPa | 0 mm | - | 0 W/m² | - |
| 1777511709 | 21.11° C | 71% | 1011.2 hPa | 0 mm | - | 0 W/m² | - |
| 1777511406 | 21.11° C | 70% | 1011.2 hPa | 0 mm | - | 0 W/m² | - |
| 1777511105 | 21.67° C | 70% | 1011.1 hPa | 0 mm | - | 0 W/m² | - |
| 1777509280 | 22.22° C | 66% | 1010.6 hPa | 0 mm | - | 0 W/m² | - |
| 1777508977 | 22.22° C | 66% | 1010.4 hPa | 0 mm | - | 0 W/m² | - |
| 1777508674 | 22.22° C | 65% | 1010.1 hPa | 0 mm | - | 0 W/m² | - |
| 1777508371 | 22.78° C | 65% | 1010.1 hPa | 0 mm | - | 0 W/m² | - |
| 1777508068 | 22.78° C | 65% | 1010 hPa | 0 mm | - | 0 W/m² | - |
| 1777507765 | 22.22° C | 66% | 1010.1 hPa | 0 mm | - | 0 W/m² | - |
| 1777507462 | 21.67° C | 75% | 1010.1 hPa | 0 mm | - | 0 W/m² | - |
| 1777507159 | 21.67° C | 80% | 1010 hPa | 0 mm | - | 1 W/m² | - |
| 1777506857 | 22.22° C | 86% | 1009.8 hPa | 0 mm | - | 2 W/m² | - |
| 1777505946 | 22.22° C | 87% | 1009.9 hPa | 0 mm | - | 10 W/m² | - |
| 1777502608 | 22.22° C | 86% | 1009.4 hPa | 0 mm | - | 30 W/m² | - |
* Rain latest hour (hover to see other rain measurements)
** Current wind speed in m/s (hover to see current wind gust speed)